Погода в Улахан-Ане

Россия / Республика Саха (Якутия)     61°18′02″N   128°15′37″E
темп.,
°C
ветер,
м/с
пор.,
м/с
влажн.,
%
обл.,
%
осадки,
мм/ч
давл.,
гПа
погр.,
м
27 февраля, сб
сб2700:00−29всв239896 0.0 103071
03:00−31в239982 0.0 102945
06:00−30всв2397100 0.0 102876
09:00−29в2596100 0.0 1027164
12:00−24в3594100 0.0 1025333
15:00−21всв4795100 0.0 1020427
18:00−22всв3796100 0.0 1020408
21:00−23всв2697100 0.1 1018319
28 февраля, вс
вс2800:00−24ссв2499100 0.6 1018245
03:00−24ссз1499100 1.4 1017234
06:00−24зсз3898100 0.8 1019531
09:00−25зсз5996100 1.4 1020715
12:00−25зсз5995100 0.4 1022731
15:00−25зсз5993100 0.9 1023823
18:00−25зсз41095100 0.3 1025872
21:00−25зсз3996100 0.5 1027931
1 марта, пн
пн100:00−26з4994100 0.2 1027838
03:00−27з4994100 0.3 1027723
06:00−27з3995100 0.1 1027682
09:00−27з4993100 0.3 1028728
12:00−25зсз5890100 0.1 1028869
15:00−25зсз4789100 0.3 1027924
18:00−26з3794100 0.1 1028686
21:00−27з2796100 0.1 1028443
2 марта, вт
вт200:00−28з2597100 0.1 1028128
03:00−30з239899 0.1 102870
06:00−31зюз229895 0.0 102856
09:00−31зюз249791 0.1 1028146
12:00−26з238780 0.0 1026546
15:00−25зсз128290 0.0 1026788
18:00−30всв0093100 0.0 102519
21:00−34всв119775 0.0 102619
3 марта, ср
ср300:00−35всв119962 0.0 102619
03:00−36всв019971 0.0 102619
06:00−36св019980 0.0 102519
09:00−33зсз009778 0.0 102529
12:00−28ссз119098 0.0 1022321
15:00−26ссз128499 0.0 1021599
18:00−29сз2295100 0.0 102032
21:00−30зсз2597100 0.1 1021192